Regional Weather Roundup
Issued by NWS Northern Indiana

Home | Current Version | Previous Version | Graphics & Text | Print | Product List | Glossary On
Versions: 1 2 3 4 5 6 7 8 9 10 11 12 13 14 15 16 17 18 19 20 21 22 23 24 25 26 27 28 29 30 31 32 33 34 35 36 37 38 39 40 41 42 43 44 45 46 47 48 49 50
000
ASUS43 KIWX 240010
RWRIWX

KIWX WEATHER ROUNDUP
NATIONAL WEATHER SERVICE NORTHERN INDIANA
800 PM EDT MON APR 23 2018

NOTE: "FAIR" INDICATES FEW OR NO CLOUDS BELOW 12,000 FEET WITH NO
SIGNIFICANT WEATHER AND/OR OBSTRUCTIONS TO VISIBILITY.

* THESE STATIONS ARE NOT UNDER NWS QUALITY CONTROL. THEY ALSO MAY NOT
  REPORT WEATHER SUCH AS PRECIPITATION OR FOG.

INZ001>027-240100-
NORTHERN INDIANA

CITY           SKY/WX    TMP DP  RH WIND       PRES   REMARKS
GARY*          CLOUDY    46  34  61 CALM      30.12S
VALPARAISO     LGT RAIN  57  54  89 E6        30.10S FOG
6HR MIN TEMP:  56; 6HR MAX TEMP:  72; 6HR PCP:  0.01;

MICHIGAN CITY* CLOUDY    52  36  54 CALM      30.11S
LAPORTE*       DRIZZLE   58  53  83 CALM      30.11S
6HR MIN TEMP:  58; 6HR MAX TEMP:  70;

KNOX*          CLOUDY    55  54  94 SE6       30.09S
SOUTH BEND     CLOUDY    58  51  78 SE13      30.13R
6HR MIN TEMP:  58; 6HR MAX TEMP:  72; 6HR PCP: TRACE;

ELKHART*       LGT RAIN  59  50  72 SE14G21   30.12R
GOSHEN         CLOUDY    59  51  75 SE8       30.11S
6HR MIN TEMP:  59; 6HR MAX TEMP:  72; 6HR PCP: TRACE;

MONTICELLO*    CLOUDY    56  55  94 E7        30.07S
6HR MIN TEMP:  56; 6HR MAX TEMP:  66;

LOGANSPORT*    CLOUDY    54  54 100 E10       30.08F
ROCHESTER*     MOCLDY    57  52  82 SE10      30.10S
WARSAW*        CLOUDY    57  52  82 SE8       30.10F
AUBURN*        CLOUDY    55  50  82 SE8       30.13S
FORT WAYNE     CLOUDY    56  50  80 SE14G22   30.12F
6HR MIN TEMP:  56; 6HR MAX TEMP:  71; 6HR PCP:  0.01;

HUNTINGTON*    CLOUDY    54  53  96 SE9G17    30.10F
6HR MIN TEMP:  54; 6HR MAX TEMP:  68; 6HR PCP:  0.01;

MARION*        CLOUDY    54  51  89 SE14      30.09S
6HR MIN TEMP:  28; 6HR MAX TEMP:  63; 6HR PCP:  0.07;


$$
INZ028>050-240100-
CENTRAL INDIANA

CITY           SKY/WX    TMP DP  RH WIND       PRES   REMARKS
LAFAYETTE      CLOUDY    56  54  93 E9        30.04F
6HR MIN TEMP:  55; 6HR MAX TEMP:  64; 6HR PCP:  0.04;

KOKOMO*        CLOUDY    55  52  89 E17G24    30.07F
6HR MIN TEMP:  55; 6HR MAX TEMP:  64; 6HR PCP:  0.02;

MUNCIE*        CLOUDY    55  51  86 SE17      30.08S
6HR MIN TEMP:  55; 6HR MAX TEMP:  59; 6HR PCP:  0.13;

INDIANAPOLIS   CLOUDY    56  53  90 E13       30.03S
6HR MIN TEMP:  53; 6HR MAX TEMP:  57; 6HR PCP:  0.22;


$$
MIZ043>046-050>051-056>058-064>065-071>073-077>080-240100-
SOUTHWEST LOWER MICHIGAN

CITY           SKY/WX    TMP DP  RH WIND       PRES   REMARKS
BATTLE CREEK   CLOUDY    64  48  56 S18       30.12R
6HR MIN TEMP:  64; 6HR MAX TEMP:  74;

BENTON HARBOR  MOCLDY    54  33  45 SW5       30.09R
6HR MIN TEMP:  54; 6HR MAX TEMP:  75;

COLDWATER*     LGT RAIN  58  52  80 S9        30.13S
6HR MIN TEMP:  58; 6HR MAX TEMP:  72;

HILLSDALE*     CLOUDY    59  50  72 S12G17    30.15R
HOLLAND        FAIR      70  42  36 E7        30.07S
6HR MIN TEMP:  69; 6HR MAX TEMP:  74;

GRAND RAPIDS   MOCLDY    67  42  40 E8        30.08S
6HR MIN TEMP:  66; 6HR MAX TEMP:  74;

KALAMAZOO      MOCLDY    63  48  58 S12G26    30.12R
6HR MIN TEMP:  63; 6HR MAX TEMP:  75;

STURGIS*       RAIN      59  52  78 S10       30.13R
6HR MIN TEMP:  59; 6HR MAX TEMP:  73;

THREE RIVERS*  MOCLDY    61  51  68 S10       30.12R
6HR MIN TEMP:  61; 6HR MAX TEMP:  74;


$$
OHZ001>008-015>018-024>025-240100-
NORTHWEST OHIO

CITY           SKY/WX    TMP DP  RH WIND       PRES   REMARKS
WAUSEON*       MOCLDY    59  52  77 S13       30.16S
DEFIANCE       CLOUDY    58  50  75 S10       30.14S
6HR MIN TEMP:  58; 6HR MAX TEMP:  74; 6HR PCP: TRACE;

FINDLAY        FAIR      58  43  57 S20G31    30.15S
6HR MIN TEMP:  58; 6HR MAX TEMP:  74; 6HR PCP: TRACE;

TOLEDO EXPRESS CLOUDY    60  50  69 S10       30.16S
6HR MIN TEMP:  60; 6HR MAX TEMP:  71;

TOLEDO METCALF CLOUDY    59  47  64 S10       30.17S
6HR MIN TEMP:  59; 6HR MAX TEMP:  68;

LIMA           CLOUDY    53  47  79 E10       30.15S
6HR MIN TEMP:  53; 6HR MAX TEMP:  70; 6HR PCP:  0.02;


$$
AND FOR LAKE MICHIGAN COASTAL AND OPEN LAKE BUOY OBSERVATIONS

STATION/POSITION TEMP    WIND        PRES    VSBY  WAVE
                 AIR SEA DIR/SP/G                  HT/PER
                 (F)     (DEG/KT/KT) (MB)    (MI)  (FT/S)
CALUMET HARBOR            10/  7/  9 1019.2S
MICHIGAN CITY     46     300/  2/  2   N/A
BURNS HARBOR      42      CALM  /  3 1020.0S
SAINT JOSEPH      49      CALM  /  1 1019.3
4 MI NW BRIDGMAN  44 42  240/  4/  4 1020.3          1/ 3

$$
&&




USA.gov is the U.S. government's official web portal to all federal, state and local government web resources and services.